RYR824W LFOB-EPMO

Flight info

Callsign RYR824W
Flight time 2h 3m
Altitude 35000
Route RANUX DCT VALEK/N0443F370 DCT LIPNI DCT LIMGO DCT MASEK DCT ROBEL DCT POZUM DCT ADVAB P150 OBOKU DCT DOSIX
Aircraft B738/M-SDE3FGIJ1LRWY/SB1

Departure

Time 2026-04-22 21:06
Airport Beauvais-Tillé airport (LFOB)

Arrival

Time 2026-04-22 23:10
Airport Warsaw Modlin Airport (EPMO)
Time Latitude Longitude Altitude Speed Heading
2026-04-22 20:35 49.45827 2.11116 347 ft 0 kts 33°
2026-04-22 20:59 49.45818 2.11106 347 ft 3 kts 35°
2026-04-22 21:00 49.45800 2.11089 355 ft 2 kts 28°
2026-04-22 21:00 49.45782 2.11078 354 ft 3 kts 355°
2026-04-22 21:00 49.45766 2.11089 356 ft 3 kts 305°
2026-04-22 21:00 49.45754 2.11117 356 ft 3 kts 303°
2026-04-22 21:01 49.45753 2.11121 346 ft 1 kts 303°
2026-04-22 21:02 49.45753 2.11120 346 ft 1 kts 303°
2026-04-22 21:03 49.45765 2.11092 355 ft 4 kts 303°
2026-04-22 21:03 49.45782 2.11053 348 ft 4 kts 302°
2026-04-22 21:03 49.45790 2.11010 348 ft 4 kts 259°
2026-04-22 21:03 49.45769 2.10976 348 ft 5 kts 213°
2026-04-22 21:04 49.45718 2.10932 349 ft 12 kts 209°
2026-04-22 21:04 49.45653 2.10877 355 ft 8 kts 211°
2026-04-22 21:04 49.45637 2.10862 349 ft 2 kts 206°
2026-04-22 21:04 49.45622 2.10874 349 ft 1 kts 129°
2026-04-22 21:05 49.45621 2.10875 349 ft 0 kts 128°
2026-04-22 21:05 49.45621 2.10876 349 ft 0 kts 128°
2026-04-22 21:06 49.45561 2.11011 353 ft 48 kts 123°
2026-04-22 21:06 49.45230 2.11772 331 ft 121 kts 123°
2026-04-22 21:06 49.44661 2.13088 479 ft 164 kts 122°
2026-04-22 21:06 49.44049 2.14429 1517 ft 142 kts 114°
2026-04-22 21:07 49.43807 2.15861 2208 ft 147 kts 93°
2026-04-22 21:07 49.43876 2.17589 2484 ft 177 kts 86°
2026-04-22 21:07 49.43992 2.19581 2696 ft 199 kts 86°
2026-04-22 21:07 49.44113 2.21801 2926 ft 220 kts 86°
2026-04-22 21:08 49.44237 2.24222 3416 ft 233 kts 86°
2026-04-22 21:08 49.44361 2.26734 4168 ft 238 kts 87°
2026-04-22 21:08 49.44484 2.29310 4883 ft 246 kts 87°
2026-04-22 21:08 49.44609 2.31974 5570 ft 253 kts 86°
2026-04-22 21:09 49.44637 2.34676 6365 ft 254 kts 97°
2026-04-22 21:09 49.44285 2.37355 7124 ft 257 kts 103°
2026-04-22 21:09 49.43869 2.40044 7837 ft 261 kts 103°
2026-04-22 21:09 49.43445 2.42774 8577 ft 264 kts 102°
2026-04-22 21:10 49.43022 2.45541 9310 ft 267 kts 102°
2026-04-22 21:10 49.42600 2.48339 10044 ft 271 kts 102°
2026-04-22 21:10 49.42176 2.51183 10628 ft 279 kts 102°
2026-04-22 21:10 49.41729 2.54213 10791 ft 302 kts 101°
2026-04-22 21:11 49.41251 2.57472 11012 ft 321 kts 101°
2026-04-22 21:11 49.40755 2.60859 11538 ft 329 kts 101°
2026-04-22 21:11 49.40254 2.64284 12232 ft 331 kts 101°
2026-04-22 21:11 49.39747 2.67750 12990 ft 333 kts 101°
2026-04-22 21:12 49.39403 2.70094 13497 ft 334 kts 101°
2026-04-22 21:12 49.38724 2.74734 14443 ft 338 kts 101°
2026-04-22 21:12 49.38205 2.78278 15102 ft 342 kts 100°
2026-04-22 21:12 49.37679 2.81861 15763 ft 346 kts 100°
2026-04-22 21:13 49.37146 2.85486 16416 ft 350 kts 100°
2026-04-22 21:13 49.36606 2.89149 17069 ft 354 kts 100°
2026-04-22 21:13 49.36060 2.92848 17712 ft 358 kts 100°
2026-04-22 21:13 49.35686 2.95373 18149 ft 361 kts 100°
2026-04-22 21:14 49.35126 2.99153 18761 ft 365 kts 100°
2026-04-22 21:14 49.34558 3.02973 19283 ft 370 kts 99°
2026-04-22 21:14 49.33982 3.06839 19788 ft 375 kts 99°
2026-04-22 21:14 49.33396 3.10761 20284 ft 380 kts 99°
2026-04-22 21:15 49.32800 3.14735 20815 ft 384 kts 99°
2026-04-22 21:15 49.32199 3.18739 21329 ft 388 kts 99°
2026-04-22 21:15 49.31587 3.22807 21818 ft 393 kts 99°
2026-04-22 21:15 49.30967 3.26914 22304 ft 398 kts 99°
2026-04-22 21:16 49.30339 3.31059 22780 ft 402 kts 99°
2026-04-22 21:16 49.29703 3.35254 23247 ft 406 kts 99°
2026-04-22 21:16 49.29058 3.39489 23722 ft 411 kts 99°
2026-04-22 21:16 49.28405 3.43770 24126 ft 415 kts 99°
2026-04-22 21:17 49.27742 3.48101 24509 ft 419 kts 99°
2026-04-22 21:17 49.27075 3.52449 24888 ft 422 kts 99°
2026-04-22 21:17 49.26398 3.56849 25290 ft 426 kts 99°
2026-04-22 21:17 49.25714 3.61275 25722 ft 427 kts 99°
2026-04-22 21:18 49.25028 3.65710 26104 ft 431 kts 99°
2026-04-22 21:18 49.24332 3.70195 26436 ft 435 kts 99°
2026-04-22 21:18 49.23628 3.74729 26676 ft 441 kts 99°
2026-04-22 21:18 49.22912 3.79319 27018 ft 445 kts 99°
2026-04-22 21:19 49.22190 3.83936 27395 ft 447 kts 99°
2026-04-22 21:19 49.21462 3.88568 27740 ft 450 kts 99°
2026-04-22 21:19 49.20726 3.93248 28059 ft 454 kts 99°
2026-04-22 21:19 49.19984 3.97953 28379 ft 457 kts 99°
2026-04-22 21:20 49.19234 4.02690 28690 ft 460 kts 99°
2026-04-22 21:20 49.18476 4.07463 29002 ft 463 kts 99°
2026-04-22 21:20 49.17705 4.12311 29310 ft 466 kts 99°
2026-04-22 21:20 49.16935 4.17132 29699 ft 467 kts 99°
2026-04-22 21:21 49.16165 4.21947 30155 ft 466 kts 99°
2026-04-22 21:21 49.15394 4.26744 30553 ft 466 kts 99°
2026-04-22 21:21 49.14736 4.31571 30855 ft 462 kts 91°
2026-04-22 21:21 49.14698 4.36437 31156 ft 455 kts 79°
2026-04-22 21:22 49.15237 4.41153 31530 ft 447 kts 69°
2026-04-22 21:22 49.16287 4.45547 31961 ft 439 kts 62°
2026-04-22 21:22 49.17478 4.49829 32393 ft 437 kts 62°
2026-04-22 21:22 49.18672 4.54092 32683 ft 438 kts 62°
2026-04-22 21:23 49.19867 4.58381 32956 ft 439 kts 62°
2026-04-22 21:23 49.21051 4.62681 33288 ft 439 kts 62°
2026-04-22 21:23 49.22222 4.66980 33723 ft 436 kts 62°
2026-04-22 21:23 49.23376 4.71257 34176 ft 433 kts 63°
2026-04-22 21:24 49.24520 4.75511 34439 ft 433 kts 63°
2026-04-22 21:24 49.25669 4.79794 34647 ft 435 kts 63°
2026-04-22 21:24 49.26816 4.84081 34860 ft 435 kts 63°
2026-04-22 21:24 49.27960 4.88367 35115 ft 435 kts 63°
2026-04-22 21:25 49.29102 4.92651 35299 ft 436 kts 63°
2026-04-22 21:25 49.30249 4.96962 35283 ft 436 kts 63°
2026-04-22 21:25 49.32520 5.05526 35284 ft 432 kts 63°
2026-04-22 21:26 49.34775 5.14058 35296 ft 430 kts 63°
2026-04-22 21:26 49.37011 5.22545 35300 ft 429 kts 64°
2026-04-22 21:27 49.39240 5.31035 35302 ft 429 kts 64°
2026-04-22 21:27 49.41464 5.39539 35321 ft 430 kts 65°
2026-04-22 21:28 49.43686 5.48070 35301 ft 430 kts 65°
2026-04-22 21:28 49.45899 5.56599 35307 ft 430 kts 65°
2026-04-22 21:29 49.48104 5.65128 35314 ft 429 kts 65°
2026-04-22 21:29 49.50304 5.73665 35306 ft 429 kts 65°
2026-04-22 21:30 49.52465 5.82233 35320 ft 429 kts 66°
2026-04-22 21:30 49.54534 5.90860 35325 ft 430 kts 66°
2026-04-22 21:31 49.56669 5.99453 35316 ft 429 kts 66°
2026-04-22 21:31 49.58798 6.08046 35321 ft 429 kts 66°
2026-04-22 21:32 49.60906 6.16631 35325 ft 427 kts 67°
2026-04-22 21:32 49.62995 6.25173 35319 ft 426 kts 67°
2026-04-22 21:33 49.65421 6.33462 35335 ft 422 kts 60°
2026-04-22 21:33 49.68245 6.41381 35326 ft 421 kts 59°
2026-04-22 21:34 49.71075 6.49283 35312 ft 420 kts 59°
2026-04-22 21:34 49.73859 6.57193 35305 ft 418 kts 59°
2026-04-22 21:35 49.76611 6.65110 35306 ft 418 kts 60°
2026-04-22 21:35 49.79351 6.73033 35304 ft 417 kts 60°
2026-04-22 21:36 49.82096 6.81002 35320 ft 417 kts 60°
2026-04-22 21:36 49.84825 6.88946 35308 ft 418 kts 60°
2026-04-22 21:37 49.87547 6.96893 35321 ft 418 kts 60°
2026-04-22 21:37 49.90265 7.04854 35320 ft 418 kts 60°
2026-04-22 21:38 49.92984 7.12842 35345 ft 418 kts 60°
2026-04-22 21:38 49.95694 7.20828 35346 ft 418 kts 60°
2026-04-22 21:39 49.98398 7.28824 35353 ft 418 kts 61°
2026-04-22 21:39 50.01095 7.36822 35353 ft 418 kts 61°
2026-04-22 21:40 50.03777 7.44800 35343 ft 417 kts 62°
2026-04-22 21:40 50.06455 7.52796 35333 ft 416 kts 62°
2026-04-22 21:41 50.09121 7.60777 35334 ft 415 kts 62°
2026-04-22 21:41 50.11776 7.68752 35340 ft 414 kts 62°
2026-04-22 21:42 50.14418 7.76714 35336 ft 413 kts 62°
2026-04-22 21:42 50.17052 7.84676 35351 ft 413 kts 63°
2026-04-22 21:43 50.19677 7.92633 35340 ft 412 kts 63°
2026-04-22 21:43 50.22294 8.00593 35346 ft 412 kts 63°
2026-04-22 21:44 50.24896 8.08535 35345 ft 412 kts 63°
2026-04-22 21:44 50.27497 8.16498 35347 ft 411 kts 63°
2026-04-22 21:45 50.30079 8.24428 35350 ft 411 kts 63°
2026-04-22 21:45 50.32676 8.32430 35359 ft 411 kts 63°
2026-04-22 21:46 50.35262 8.40421 35340 ft 411 kts 64°
2026-04-22 21:46 50.37838 8.48406 35347 ft 410 kts 64°
2026-04-22 21:47 50.40403 8.56386 35349 ft 409 kts 64°
2026-04-22 21:47 50.42957 8.64357 35348 ft 409 kts 64°
2026-04-22 21:48 50.45500 8.72320 35347 ft 408 kts 64°
2026-04-22 21:48 50.48037 8.80287 35344 ft 407 kts 64°
2026-04-22 21:49 50.50151 8.86948 35345 ft 407 kts 64°
2026-04-22 21:49 50.52670 8.94907 35344 ft 406 kts 64°
2026-04-22 21:50 50.55180 9.02862 35348 ft 405 kts 65°
2026-04-22 21:50 50.57678 9.10803 35340 ft 405 kts 65°
2026-04-22 21:51 50.60165 9.18740 35343 ft 404 kts 65°
2026-04-22 21:52 50.63878 9.30634 35346 ft 403 kts 65°
2026-04-22 21:52 50.66343 9.38561 35358 ft 403 kts 66°
2026-04-22 21:53 50.68802 9.46494 35343 ft 402 kts 66°
2026-04-22 21:53 50.71241 9.54386 35347 ft 400 kts 66°
2026-04-22 21:54 50.73530 9.62370 35343 ft 398 kts 72°
2026-04-22 21:54 50.75222 9.70668 35343 ft 396 kts 74°
2026-04-22 21:55 50.76859 9.78974 35349 ft 396 kts 74°
2026-04-22 21:55 50.78518 9.87260 35351 ft 395 kts 74°
2026-04-22 21:56 50.80199 9.95591 35353 ft 395 kts 74°
2026-04-22 21:56 50.81859 10.03837 35342 ft 394 kts 74°
2026-04-22 21:57 50.83515 10.12089 35344 ft 393 kts 74°
2026-04-22 21:57 50.85160 10.20328 35347 ft 392 kts 74°
2026-04-22 21:58 50.86794 10.28546 35345 ft 391 kts 74°
2026-04-22 21:58 50.88422 10.36762 35343 ft 390 kts 75°
2026-04-22 21:59 50.90041 10.44943 35357 ft 389 kts 75°
2026-04-22 21:59 50.91759 10.53062 35341 ft 387 kts 74°
2026-04-22 22:00 50.93498 10.61119 35345 ft 385 kts 74°
2026-04-22 22:00 50.95214 10.69141 35348 ft 383 kts 74°
2026-04-22 22:01 50.96909 10.77131 35347 ft 382 kts 74°
2026-04-22 22:01 50.98592 10.85116 35348 ft 381 kts 75°
2026-04-22 22:02 51.00266 10.93093 35355 ft 381 kts 75°
2026-04-22 22:02 51.01936 11.01087 35347 ft 382 kts 75°
2026-04-22 22:03 51.03604 11.09097 35347 ft 382 kts 75°
2026-04-22 22:03 51.05265 11.17106 35340 ft 381 kts 75°
2026-04-22 22:04 51.06916 11.25104 35336 ft 381 kts 75°
2026-04-22 22:04 51.08561 11.33101 35339 ft 380 kts 75°
2026-04-22 22:05 51.10199 11.41097 35343 ft 380 kts 75°
2026-04-22 22:05 51.11830 11.49087 35345 ft 380 kts 74°
2026-04-22 22:06 51.13454 11.57083 35334 ft 379 kts 75°
2026-04-22 22:06 51.15070 11.65067 35335 ft 378 kts 75°
2026-04-22 22:07 51.16677 11.73040 35328 ft 378 kts 75°
2026-04-22 22:07 51.18276 11.81005 35335 ft 377 kts 75°
2026-04-22 22:08 51.19868 11.88966 35336 ft 376 kts 75°
2026-04-22 22:08 51.21452 11.96923 35320 ft 376 kts 75°
2026-04-22 22:09 51.23026 12.04858 35328 ft 375 kts 75°
2026-04-22 22:09 51.24593 12.12795 35322 ft 375 kts 75°
2026-04-22 22:10 51.26165 12.20787 35323 ft 374 kts 75°
2026-04-22 22:10 51.27715 12.28703 35319 ft 374 kts 75°
2026-04-22 22:11 51.29264 12.36647 35316 ft 375 kts 75°
2026-04-22 22:11 51.30809 12.44597 35317 ft 375 kts 75°
2026-04-22 22:12 51.32348 12.52556 35322 ft 375 kts 75°
2026-04-22 22:12 51.33883 12.60525 35314 ft 375 kts 75°
2026-04-22 22:13 51.35415 12.68513 35314 ft 376 kts 75°
2026-04-22 22:13 51.36934 12.76461 35301 ft 375 kts 75°
2026-04-22 22:14 51.38454 12.84452 35307 ft 375 kts 75°
2026-04-22 22:14 51.39968 12.92450 35300 ft 375 kts 75°
2026-04-22 22:15 51.41478 13.00452 35301 ft 375 kts 75°
2026-04-22 22:15 51.42980 13.08453 35305 ft 375 kts 74°
2026-04-22 22:16 51.44477 13.16456 35295 ft 375 kts 74°
2026-04-22 22:16 51.45967 13.24460 35287 ft 375 kts 75°
2026-04-22 22:17 51.47450 13.32459 35290 ft 374 kts 75°
2026-04-22 22:17 51.48926 13.40457 35286 ft 374 kts 75°
2026-04-22 22:18 51.50395 13.48447 35289 ft 373 kts 75°
2026-04-22 22:18 51.51856 13.56431 35275 ft 373 kts 75°
2026-04-22 22:19 51.53312 13.64415 35278 ft 373 kts 74°
2026-04-22 22:19 51.54761 13.72412 35280 ft 373 kts 74°
2026-04-22 22:20 51.56205 13.80409 35273 ft 373 kts 74°
2026-04-22 22:20 51.57646 13.88420 35269 ft 373 kts 74°
2026-04-22 22:21 51.59082 13.96441 35273 ft 373 kts 74°
2026-04-22 22:21 51.60523 14.04527 35267 ft 374 kts 75°
2026-04-22 22:22 51.61939 14.12512 35265 ft 374 kts 75°
2026-04-22 22:22 51.63130 14.19249 35267 ft 374 kts 75°
2026-04-22 22:23 51.64551 14.27301 35259 ft 374 kts 75°
2026-04-22 22:23 51.65963 14.35359 35254 ft 374 kts 75°
2026-04-22 22:24 51.67365 14.43424 35260 ft 374 kts 75°
2026-04-22 22:24 51.68760 14.51464 35257 ft 374 kts 75°
2026-04-22 22:25 51.70158 14.59548 35255 ft 375 kts 75°
2026-04-22 22:25 51.71551 14.67638 35266 ft 375 kts 74°
2026-04-22 22:26 51.73159 14.75649 35264 ft 375 kts 71°
2026-04-22 22:26 51.74878 14.83605 35248 ft 375 kts 71°
2026-04-22 22:27 51.76579 14.91544 35243 ft 374 kts 71°
2026-04-22 22:27 51.78251 14.99451 35249 ft 372 kts 72°
2026-04-22 22:28 51.79911 15.07366 35222 ft 371 kts 71°
2026-04-22 22:28 51.81559 15.15265 35231 ft 371 kts 71°
2026-04-22 22:29 51.83202 15.23173 35239 ft 371 kts 72°
2026-04-22 22:29 51.84840 15.31089 35246 ft 372 kts 71°
2026-04-22 22:30 51.86476 15.39027 35231 ft 372 kts 71°
2026-04-22 22:30 51.88108 15.46980 35231 ft 372 kts 71°
2026-04-22 22:31 51.89737 15.54948 35228 ft 373 kts 71°
2026-04-22 22:31 51.91362 15.62928 35227 ft 373 kts 71°
2026-04-22 22:32 51.92983 15.70923 35218 ft 374 kts 72°
2026-04-22 22:32 51.94601 15.78932 35199 ft 374 kts 71°
2026-04-22 22:33 51.96225 15.87007 35216 ft 374 kts 71°
2026-04-22 22:33 51.97835 15.95040 35211 ft 375 kts 71°
2026-04-22 22:34 51.99440 16.03087 35209 ft 375 kts 71°
2026-04-22 22:34 52.01042 16.11149 35205 ft 375 kts 71°
2026-04-22 22:35 52.02639 16.19214 35204 ft 375 kts 71°
2026-04-22 22:35 52.04231 16.27295 35199 ft 376 kts 72°
2026-04-22 22:36 52.05816 16.35379 35198 ft 376 kts 72°
2026-04-22 22:36 52.07395 16.43465 35207 ft 376 kts 71°
2026-04-22 22:37 52.08973 16.51569 35175 ft 376 kts 71°
2026-04-22 22:37 52.10543 16.59676 35184 ft 375 kts 71°
2026-04-22 22:38 52.12108 16.67786 35184 ft 375 kts 71°
2026-04-22 22:38 52.13467 16.75998 35181 ft 377 kts 78°
2026-04-22 22:39 52.14294 16.84409 35161 ft 372 kts 79°
2026-04-22 22:39 52.14681 16.88525 35042 ft 365 kts 79°
2026-04-22 22:39 52.15066 16.92556 34811 ft 356 kts 78°
2026-04-22 22:39 52.15449 16.96511 34461 ft 352 kts 78°
2026-04-22 22:40 52.15832 17.00427 34116 ft 348 kts 78°
2026-04-22 22:40 52.16213 17.04307 33703 ft 345 kts 78°
2026-04-22 22:40 52.16589 17.08136 33352 ft 341 kts 78°
2026-04-22 22:40 52.16962 17.11935 32983 ft 337 kts 78°
2026-04-22 22:41 52.17328 17.15677 32630 ft 333 kts 78°
2026-04-22 22:41 52.17690 17.19387 32300 ft 331 kts 78°
2026-04-22 22:41 52.18055 17.23129 31957 ft 339 kts 78°
2026-04-22 22:41 52.18427 17.26951 31592 ft 342 kts 78°
2026-04-22 22:42 52.18794 17.30761 31230 ft 339 kts 78°
2026-04-22 22:42 52.19157 17.34538 30884 ft 336 kts 78°
2026-04-22 22:42 52.19516 17.38283 30544 ft 333 kts 78°
2026-04-22 22:42 52.19871 17.41999 30196 ft 331 kts 78°
2026-04-22 22:43 52.20222 17.45697 29809 ft 328 kts 78°
2026-04-22 22:43 52.20566 17.49344 29579 ft 325 kts 78°
2026-04-22 22:43 52.20913 17.53035 29245 ft 334 kts 78°
2026-04-22 22:43 52.21266 17.56797 28850 ft 335 kts 78°
2026-04-22 22:44 52.21613 17.60541 28481 ft 332 kts 77°
2026-04-22 22:44 52.21955 17.64244 28096 ft 329 kts 77°
2026-04-22 22:44 52.22299 17.67917 27740 ft 326 kts 77°
2026-04-22 22:44 52.22640 17.71560 27378 ft 324 kts 77°
2026-04-22 22:45 52.22971 17.75187 27032 ft 323 kts 77°
2026-04-22 22:45 52.23297 17.78812 26686 ft 326 kts 77°
2026-04-22 22:45 52.23634 17.82497 26329 ft 330 kts 77°
2026-04-22 22:45 52.23972 17.86205 25943 ft 329 kts 77°
2026-04-22 22:46 52.24308 17.89888 25583 ft 327 kts 77°
2026-04-22 22:46 52.24641 17.93556 25230 ft 325 kts 77°
2026-04-22 22:46 52.24970 17.97198 24882 ft 324 kts 77°
2026-04-22 22:46 52.25299 18.00872 24535 ft 322 kts 77°
2026-04-22 22:47 52.25606 18.04493 24167 ft 322 kts 77°
2026-04-22 22:47 52.25904 18.08110 23834 ft 322 kts 77°
2026-04-22 22:47 52.26202 18.11743 23426 ft 323 kts 77°
2026-04-22 22:47 52.26499 18.15383 23053 ft 324 kts 77°
2026-04-22 22:48 52.26795 18.19018 22686 ft 322 kts 77°
2026-04-22 22:48 52.27087 18.22627 22335 ft 319 kts 77°
2026-04-22 22:48 52.27376 18.26206 22003 ft 317 kts 77°
2026-04-22 22:48 52.27663 18.29755 21659 ft 314 kts 77°
2026-04-22 22:49 52.27947 18.33287 21322 ft 312 kts 77°
2026-04-22 22:49 52.28228 18.36790 20997 ft 311 kts 76°
2026-04-22 22:49 52.28507 18.40268 20678 ft 312 kts 76°
2026-04-22 22:49 52.28789 18.43782 20353 ft 313 kts 76°
2026-04-22 22:50 52.29070 18.47314 20018 ft 314 kts 76°
2026-04-22 22:50 52.29350 18.50846 19668 ft 313 kts 76°
2026-04-22 22:50 52.29626 18.54364 19347 ft 311 kts 76°
2026-04-22 22:50 52.29900 18.57855 19021 ft 310 kts 76°
2026-04-22 22:51 52.30172 18.61343 18717 ft 309 kts 76°
2026-04-22 22:51 52.30443 18.64813 18364 ft 309 kts 76°
2026-04-22 22:51 52.30713 18.68291 17997 ft 307 kts 76°
2026-04-22 22:51 52.30981 18.71749 17649 ft 306 kts 76°
2026-04-22 22:52 52.31245 18.75185 17319 ft 304 kts 76°
2026-04-22 22:52 52.31506 18.78596 17000 ft 302 kts 76°
2026-04-22 22:52 52.31766 18.81990 16691 ft 300 kts 76°
2026-04-22 22:52 52.32022 18.85360 16367 ft 298 kts 76°
2026-04-22 22:53 52.32276 18.88712 16062 ft 296 kts 76°
2026-04-22 22:53 52.32531 18.92065 15760 ft 298 kts 76°
2026-04-22 22:53 52.32786 18.95435 15445 ft 300 kts 76°
2026-04-22 22:53 52.33039 18.98816 15132 ft 299 kts 76°
2026-04-22 22:54 52.33290 19.02176 14828 ft 297 kts 76°
2026-04-22 22:54 52.33539 19.05528 14522 ft 296 kts 76°
2026-04-22 22:54 52.33786 19.08863 14219 ft 295 kts 77°
2026-04-22 22:54 52.34032 19.12183 13913 ft 294 kts 77°
2026-04-22 22:55 52.34279 19.15536 13572 ft 293 kts 77°
2026-04-22 22:55 52.34520 19.18829 13269 ft 291 kts 77°
2026-04-22 22:55 52.34967 19.25392 12637 ft 289 kts 79°
2026-04-22 22:56 52.35131 19.28657 12332 ft 288 kts 79°
2026-04-22 22:56 52.35284 19.31912 12030 ft 286 kts 79°
2026-04-22 22:56 52.35385 19.34055 11836 ft 285 kts 79°
2026-04-22 22:56 52.35537 19.37277 11543 ft 284 kts 79°
2026-04-22 22:57 52.35691 19.40490 11257 ft 285 kts 79°
2026-04-22 22:57 52.35848 19.43731 10971 ft 287 kts 80°
2026-04-22 22:57 52.36003 19.46964 10678 ft 285 kts 80°
2026-04-22 22:57 52.36158 19.50195 10386 ft 284 kts 80°
2026-04-22 22:58 52.36310 19.53395 10176 ft 279 kts 80°
2026-04-22 22:58 52.36458 19.56525 10011 ft 274 kts 80°
2026-04-22 22:58 52.36605 19.59631 9695 ft 273 kts 80°
2026-04-22 22:58 52.36752 19.62726 9396 ft 272 kts 80°
2026-04-22 22:59 52.36897 19.65803 9115 ft 270 kts 80°
2026-04-22 22:59 52.37039 19.68833 8988 ft 265 kts 80°
2026-04-22 22:59 52.37179 19.71841 8877 ft 266 kts 80°
2026-04-22 22:59 52.37319 19.74867 8758 ft 266 kts 80°
2026-04-22 23:00 52.37459 19.77854 8594 ft 261 kts 78°
2026-04-22 23:00 52.37667 19.80783 8334 ft 258 kts 76°
2026-04-22 23:00 52.37904 19.83679 8076 ft 256 kts 76°
2026-04-22 23:00 52.38146 19.86596 7819 ft 254 kts 76°
2026-04-22 23:01 52.38381 19.89453 7570 ft 253 kts 76°
2026-04-22 23:01 52.38612 19.92308 7303 ft 252 kts 76°
2026-04-22 23:01 52.38840 19.95148 7046 ft 252 kts 76°
2026-04-22 23:01 52.39064 19.97958 6763 ft 252 kts 76°
2026-04-22 23:02 52.39288 20.00794 6529 ft 248 kts 76°
2026-04-22 23:02 52.39507 20.03604 6223 ft 243 kts 76°
2026-04-22 23:02 52.39727 20.06320 5968 ft 240 kts 75°
2026-04-22 23:02 52.39982 20.08997 5811 ft 235 kts 74°
2026-04-22 23:03 52.40223 20.11572 5667 ft 223 kts 74°
2026-04-22 23:03 52.40448 20.14047 5544 ft 217 kts 73°
2026-04-22 23:03 52.40668 20.16480 5444 ft 216 kts 73°
2026-04-22 23:03 52.40887 20.18914 5317 ft 217 kts 73°
2026-04-22 23:04 52.41107 20.21356 5182 ft 217 kts 74°
2026-04-22 23:04 52.41319 20.23749 5143 ft 208 kts 73°
2026-04-22 23:04 52.41526 20.26062 4900 ft 202 kts 73°
2026-04-22 23:04 52.41729 20.28321 4622 ft 198 kts 72°
2026-04-22 23:05 52.41930 20.30534 4357 ft 195 kts 72°
2026-04-22 23:05 52.42128 20.32711 4097 ft 193 kts 72°
2026-04-22 23:05 52.42323 20.34864 3836 ft 189 kts 72°
2026-04-22 23:05 52.42516 20.36980 3582 ft 186 kts 72°
2026-04-22 23:06 52.42705 20.39063 3331 ft 183 kts 72°
2026-04-22 23:06 52.42891 20.41103 3093 ft 180 kts 72°
2026-04-22 23:06 52.43077 20.43117 2843 ft 179 kts 73°
2026-04-22 23:06 52.43261 20.45127 2610 ft 178 kts 73°
2026-04-22 23:07 52.43445 20.47132 2359 ft 177 kts 72°
2026-04-22 23:07 52.43627 20.49113 2111 ft 173 kts 73°
2026-04-22 23:07 52.43805 20.51046 1919 ft 170 kts 72°
2026-04-22 23:07 52.43974 20.52893 1671 ft 154 kts 72°
2026-04-22 23:08 52.44130 20.54564 1441 ft 143 kts 72°
2026-04-22 23:08 52.44274 20.56143 1236 ft 139 kts 71°
2026-04-22 23:08 52.44433 20.57728 1068 ft 142 kts 74°
2026-04-22 23:08 52.44575 20.59337 889 ft 142 kts 77°
2026-04-22 23:09 52.44726 20.60942 677 ft 145 kts 77°
2026-04-22 23:09 52.44877 20.62571 486 ft 144 kts 78°
2026-04-22 23:09 52.45029 20.64182 334 ft 138 kts 81°
2026-04-22 23:09 52.45141 20.65387 335 ft 76 kts 81°
2026-04-22 23:10 52.45185 20.65859 335 ft 20 kts 81°
2026-04-22 23:10 52.45165 20.65985 335 ft 11 kts 141°
2026-04-22 23:10 52.45092 20.66033 334 ft 11 kts 161°
2026-04-22 23:10 52.45017 20.66074 334 ft 12 kts 160°
2026-04-22 23:11 52.44933 20.66124 334 ft 13 kts 160°
2026-04-22 23:11 52.44868 20.66076 336 ft 12 kts 254°
2026-04-22 23:11 52.44853 20.65942 337 ft 12 kts 261°
2026-04-22 23:11 52.44841 20.65810 335 ft 12 kts 262°
2026-04-22 23:12 52.44830 20.65682 337 ft 11 kts 262°
2026-04-22 23:12 52.44819 20.65558 335 ft 11 kts 262°
2026-04-22 23:12 52.44808 20.65437 333 ft 11 kts 261°
2026-04-22 23:12 52.44798 20.65327 337 ft 7 kts 261°
2026-04-22 23:13 52.44764 20.65274 333 ft 6 kts 207°
2026-04-22 23:13 52.44746 20.65259 333 ft 2 kts 206°
2026-04-22 23:13 52.44743 20.65257 337 ft 0 kts 206°